Time,TemperatureF,DewpointF,PressureIn,WindDirection,WindDirectionDegrees,WindSpeedMPH,WindSpeedGustMPH,Humidity,HourlyPrecipIn,Conditions,Clouds,dailyrainin,SoftwareType,DateUTC
2013-02-23 00:15:00,36.1,35.0,30.24,ENE,61,0.0,1.0,97,0.02,,,0.00,weatherlink.com 1.10,2013-02-23 05:15:00,
2013-02-23 00:30:00,36.3,36.0,30.23,East,89,2.0,3.0,97,0.01,,,0.00,weatherlink.com 1.10,2013-02-23 05:30:00,
2013-02-23 00:45:00,36.6,36.0,30.23,East,79,0.0,1.0,97,0.02,,,0.01,weatherlink.com 1.10,2013-02-23 05:45:00,
2013-02-23 01:00:00,36.8,36.0,30.22,East,91,0.0,4.0,97,0.02,,,0.02,weatherlink.com 1.10,2013-02-23 06:00:00,
2013-02-23 01:15:00,37.0,36.0,30.21,ENE,77,0.0,2.0,97,0.02,,,0.02,weatherlink.com 1.10,2013-02-23 06:15:00,
2013-02-23 01:30:00,37.4,37.0,30.21,East,84,2.0,4.0,97,0.02,,,0.02,weatherlink.com 1.10,2013-02-23 06:30:00,
2013-02-23 01:45:00,37.5,37.0,30.20,ENE,68,0.0,3.0,97,0.01,,,0.02,weatherlink.com 1.10,2013-02-23 06:45:00,
2013-02-23 02:00:00,37.5,37.0,30.19,East,84,2.0,4.0,97,0.00,,,0.02,weatherlink.com 1.10,2013-02-23 07:00:00,
2013-02-23 02:15:00,37.5,37.0,30.18,East,94,2.0,4.0,98,0.00,,,0.02,weatherlink.com 1.10,2013-02-23 07:15:00,
2013-02-23 02:30:00,37.9,37.0,30.17,East,81,3.0,6.0,98,0.00,,,0.02,weatherlink.com 1.10,2013-02-23 07:30:00,
2013-02-23 02:45:00,38.4,38.0,30.18,ENE,70,2.0,4.0,98,0.00,,,0.02,weatherlink.com 1.10,2013-02-23 07:45:00,
2013-02-23 03:00:00,38.9,38.0,30.17,East,81,2.0,3.0,98,0.00,,,0.02,weatherlink.com 1.10,2013-02-23 08:00:00,
2013-02-23 03:15:00,39.4,39.0,30.16,East,84,2.0,3.0,98,0.01,,,0.03,weatherlink.com 1.10,2013-02-23 08:15:00,
2013-02-23 03:30:00,39.8,39.0,30.15,ENE,77,3.0,3.0,98,0.01,,,0.03,weatherlink.com 1.10,2013-02-23 08:30:00,
2013-02-23 03:45:00,39.9,39.0,30.15,ENE,77,1.0,3.0,98,0.01,,,0.03,weatherlink.com 1.10,2013-02-23 08:45:00,
2013-02-23 04:00:00,39.9,39.0,30.14,East,89,2.0,2.0,98,0.00,,,0.03,weatherlink.com 1.10,2013-02-23 09:00:00,
2013-02-23 04:15:00,39.9,39.0,30.14,ENE,77,1.0,3.0,98,0.01,,,0.04,weatherlink.com 1.10,2013-02-23 09:15:00,
2013-02-23 04:30:00,40.2,40.0,30.13,ENE,70,3.0,3.0,98,0.01,,,0.04,weatherlink.com 1.10,2013-02-23 09:30:00,
2013-02-23 04:46:00,40.3,40.0,30.13,ENE,78,0.0,3.0,98,0.01,,,0.04,weatherlink.com 1.10,2013-02-23 09:46:00,
2013-02-23 05:00:00,40.6,40.0,30.12,East,82,1.0,3.0,98,0.01,,,0.04,weatherlink.com 1.10,2013-02-23 10:00:00,
2013-02-23 05:15:00,40.7,40.0,30.13,East,86,0.0,1.0,98,0.00,,,0.04,weatherlink.com 1.10,2013-02-23 10:15:00,
2013-02-23 05:30:00,40.9,40.0,30.12,East,79,1.0,2.0,98,0.00,,,0.04,weatherlink.com 1.10,2013-02-23 10:30:00,
2013-02-23 05:45:00,41.1,41.0,30.12,East,79,2.0,2.0,98,0.00,,,0.04,weatherlink.com 1.10,2013-02-23 10:45:00,
2013-02-23 06:00:00,41.1,41.0,30.11,East,85,1.0,2.0,98,0.00,,,0.04,weatherlink.com 1.10,2013-02-23 11:00:00,
2013-02-23 06:15:00,41.5,41.0,30.11,East,98,0.0,2.0,99,0.00,,,0.04,weatherlink.com 1.10,2013-02-23 11:15:00,
2013-02-23 06:30:00,41.6,41.0,30.11,East,88,1.0,2.0,99,0.00,,,0.04,weatherlink.com 1.10,2013-02-23 11:30:00,
2013-02-23 07:01:00,41.9,42.0,30.11,SE,124,1.0,2.0,99,0.00,,,0.04,weatherlink.com 1.10,2013-02-23 12:01:00,
2013-02-23 07:16:00,42.1,42.0,30.10,East,89,0.0,3.0,99,0.00,,,0.04,weatherlink.com 1.10,2013-02-23 12:16:00,
2013-02-23 07:31:00,42.4,42.0,30.10,ENE,77,1.0,2.0,99,0.01,,,0.05,weatherlink.com 1.10,2013-02-23 12:31:00,
2013-02-23 07:46:00,42.5,42.0,30.09,East,86,2.0,3.0,99,0.01,,,0.05,weatherlink.com 1.10,2013-02-23 12:46:00,
2013-02-23 08:01:00,42.9,43.0,30.09,East,84,1.0,3.0,99,0.01,,,0.05,weatherlink.com 1.10,2013-02-23 13:01:00,
2013-02-23 08:16:00,43.1,43.0,30.07,SE,143,0.0,5.0,99,0.01,,,0.05,weatherlink.com 1.10,2013-02-23 13:16:00,
2013-02-23 08:31:00,43.3,43.0,30.06,East,82,3.0,5.0,99,0.00,,,0.05,weatherlink.com 1.10,2013-02-23 13:31:00,
2013-02-23 08:46:00,43.2,43.0,30.07,ESE,102,2.0,4.0,99,0.00,,,0.05,weatherlink.com 1.10,2013-02-23 13:46:00,
2013-02-23 09:01:00,43.3,43.0,30.05,East,81,2.0,5.0,99,0.00,,,0.05,weatherlink.com 1.10,2013-02-23 14:01:00,
2013-02-23 09:16:00,43.5,43.0,30.03,East,86,4.0,5.0,99,0.00,,,0.05,weatherlink.com 1.10,2013-02-23 14:16:00,
2013-02-23 09:31:00,43.7,44.0,30.03,ENE,74,5.0,5.0,99,0.00,,,0.05,weatherlink.com 1.10,2013-02-23 14:31:00,
2013-02-23 09:46:00,43.6,43.0,30.02,SE,127,2.0,8.0,99,0.00,,,0.05,weatherlink.com 1.10,2013-02-23 14:46:00,
2013-02-23 10:01:00,43.6,43.0,30.03,ENE,77,3.0,5.0,99,0.00,,,0.05,weatherlink.com 1.10,2013-02-23 15:01:00,
2013-02-23 10:16:00,43.5,43.0,30.02,East,84,3.0,5.0,99,0.00,,,0.05,weatherlink.com 1.10,2013-02-23 15:16:00,
2013-02-23 10:31:00,43.0,43.0,30.01,East,91,2.0,5.0,99,0.02,,,0.07,weatherlink.com 1.10,2013-02-23 15:31:00,
2013-02-23 10:46:00,42.9,43.0,30.01,ENE,74,2.0,5.0,99,0.03,,,0.08,weatherlink.com 1.10,2013-02-23 15:46:00,
2013-02-23 11:01:00,43.4,43.0,29.99,NE,53,2.0,6.0,99,0.04,,,0.09,weatherlink.com 1.10,2013-02-23 16:01:00,
2013-02-23 11:16:00,43.2,43.0,29.98,ENE,77,5.0,6.0,99,0.05,,,0.10,weatherlink.com 1.10,2013-02-23 16:16:00,
2013-02-23 11:31:00,43.4,43.0,29.97,ENE,72,4.0,7.0,99,0.05,,,0.12,weatherlink.com 1.10,2013-02-23 16:31:00,
2013-02-23 11:46:00,44.2,44.0,29.95,East,86,3.0,7.0,100,0.07,,,0.15,weatherlink.com 1.10,2013-02-23 16:46:00,
2013-02-23 12:01:00,44.3,44.0,29.95,ESE,108,2.0,6.0,99,0.08,,,0.17,weatherlink.com 1.10,2013-02-23 17:01:00,
2013-02-23 12:16:00,44.2,44.0,29.95,ENE,75,3.0,6.0,99,0.10,,,0.20,weatherlink.com 1.10,2013-02-23 17:16:00,
2013-02-23 12:31:00,44.1,44.0,29.92,ENE,72,7.0,7.0,99,0.11,,,0.23,weatherlink.com 1.10,2013-02-23 17:31:00,
2013-02-23 12:46:00,43.9,44.0,29.91,ENE,71,1.0,7.0,99,0.08,,,0.24,weatherlink.com 1.10,2013-02-23 17:46:00,
2013-02-23 13:01:00,44.3,44.0,29.89,ESE,107,2.0,5.0,99,0.08,,,0.25,weatherlink.com 1.10,2013-02-23 18:01:00,
2013-02-23 13:16:00,45.2,45.0,29.89,SE,139,1.0,3.0,100,0.05,,,0.25,weatherlink.com 1.10,2013-02-23 18:16:00,
2013-02-23 13:31:00,46.3,46.0,29.87,NE,53,1.0,7.0,100,0.02,,,0.25,weatherlink.com 1.10,2013-02-23 18:31:00,
2013-02-23 13:46:00,46.2,46.0,29.87,ENE,64,2.0,5.0,100,0.01,,,0.25,weatherlink.com 1.10,2013-02-23 18:46:00,
2013-02-23 14:02:00,46.2,46.0,29.86,NE,44,0.0,8.0,99,0.00,,,0.25,weatherlink.com 1.10,2013-02-23 19:02:00,
2013-02-23 14:17:00,46.1,46.0,29.85,East,81,3.0,5.0,99,0.00,,,0.25,weatherlink.com 1.10,2013-02-23 19:17:00,
2013-02-23 14:32:00,46.2,46.0,29.86,ENE,76,3.0,4.0,99,0.00,,,0.25,weatherlink.com 1.10,2013-02-23 19:32:00,
2013-02-23 14:47:00,46.2,46.0,29.85,NE,39,0.0,3.0,99,0.00,,,0.25,weatherlink.com 1.10,2013-02-23 19:47:00,
2013-02-23 15:02:00,47.3,47.0,29.85,East,79,3.0,9.0,100,0.00,,,0.25,weatherlink.com 1.10,2013-02-23 20:02:00,
2013-02-23 15:17:00,47.5,48.0,29.85,NNE,20,2.0,4.0,100,0.00,,,0.25,weatherlink.com 1.10,2013-02-23 20:17:00,
2013-02-23 15:32:00,47.3,47.0,29.84,NE,50,1.0,5.0,99,0.00,,,0.25,weatherlink.com 1.10,2013-02-23 20:32:00,
2013-02-23 15:47:00,47.6,48.0,29.84,North,354,3.0,4.0,100,0.00,,,0.25,weatherlink.com 1.10,2013-02-23 20:47:00,
2013-02-23 16:02:00,47.7,48.0,29.84,West,278,0.0,1.0,99,0.00,,,0.25,weatherlink.com 1.10,2013-02-23 21:02:00,
2013-02-23 16:17:00,47.4,47.0,29.85,North,357,0.0,1.0,99,0.00,,,0.25,weatherlink.com 1.10,2013-02-23 21:17:00,
2013-02-23 16:32:00,46.7,47.0,29.83,ENE,63,0.0,2.0,99,0.00,,,0.25,weatherlink.com 1.10,2013-02-23 21:32:00,
2013-02-23 16:47:00,46.9,47.0,29.83,NNW,327,0.0,3.0,99,0.02,,,0.27,weatherlink.com 1.10,2013-02-23 21:47:00,
2013-02-23 17:02:00,46.7,47.0,29.83,NNE,15,0.0,2.0,99,0.03,,,0.28,weatherlink.com 1.10,2013-02-23 22:02:00,
2013-02-23 17:17:00,46.9,47.0,29.82,ENE,57,0.0,3.0,99,0.04,,,0.29,weatherlink.com 1.10,2013-02-23 22:17:00,
2013-02-23 17:32:00,46.9,47.0,29.81,NE,49,1.0,4.0,99,0.03,,,0.29,weatherlink.com 1.10,2013-02-23 22:32:00,
2013-02-23 17:47:00,47.0,47.0,29.81,North,9,3.0,5.0,99,0.02,,,0.29,weatherlink.com 1.10,2013-02-23 22:47:00,
2013-02-23 18:02:00,47.1,47.0,29.82,NW,308,1.0,3.0,99,0.02,,,0.30,weatherlink.com 1.10,2013-02-23 23:02:00,
2013-02-23 18:17:00,47.0,47.0,29.80,NNE,22,1.0,3.0,99,0.01,,,0.30,weatherlink.com 1.10,2013-02-23 23:17:00,
2013-02-23 18:32:00,46.9,47.0,29.80,NE,39,2.0,5.0,99,0.01,,,0.30,weatherlink.com 1.10,2013-02-23 23:32:00,
2013-02-23 18:47:00,46.6,46.0,29.80,NNE,18,0.0,1.0,99,0.01,,,0.30,weatherlink.com 1.10,2013-02-23 23:47:00,
2013-02-23 19:02:00,46.4,46.0,29.81,NW,308,0.0,5.0,99,0.00,,,0.30,weatherlink.com 1.10,2013-02-24 00:02:00,
2013-02-23 19:17:00,46.0,46.0,29.82,ENE,77,0.0,2.0,99,0.00,,,0.30,weatherlink.com 1.10,2013-02-24 00:17:00,
2013-02-23 19:32:00,45.8,46.0,29.81,ENE,67,0.0,4.0,99,0.00,,,0.30,weatherlink.com 1.10,2013-02-24 00:32:00,
2013-02-23 19:47:00,45.2,45.0,29.81,NNW,347,1.0,6.0,99,0.00,,,0.30,weatherlink.com 1.10,2013-02-24 00:47:00,
2013-02-23 20:02:00,44.5,44.0,29.81,NNE,26,1.0,5.0,99,0.00,,,0.30,weatherlink.com 1.10,2013-02-24 01:02:00,
2013-02-23 20:17:00,43.8,44.0,29.80,NNW,333,3.0,8.0,99,0.00,,,0.30,weatherlink.com 1.10,2013-02-24 01:17:00,
2013-02-23 20:32:00,43.2,43.0,29.79,NNE,32,1.0,7.0,99,0.00,,,0.30,weatherlink.com 1.10,2013-02-24 01:32:00,
2013-02-23 20:47:00,42.8,43.0,29.79,ENE,77,1.0,7.0,99,0.00,,,0.30,weatherlink.com 1.10,2013-02-24 01:47:00,
2013-02-23 21:02:00,42.5,42.0,29.78,NNE,26,6.0,6.0,99,0.00,,,0.30,weatherlink.com 1.10,2013-02-24 02:02:00,
2013-02-23 21:17:00,42.4,42.0,29.78,North,358,0.0,3.0,99,0.00,,,0.30,weatherlink.com 1.10,2013-02-24 02:17:00,
2013-02-23 21:32:00,42.2,42.0,29.77,NE,53,0.0,4.0,99,0.00,,,0.30,weatherlink.com 1.10,2013-02-24 02:32:00,
2013-02-23 21:47:00,42.1,42.0,29.77,North,8,1.0,5.0,99,0.00,,,0.30,weatherlink.com 1.10,2013-02-24 02:47:00,
2013-02-23 22:02:00,41.8,42.0,29.77,NW,305,1.0,4.0,99,0.00,,,0.30,weatherlink.com 1.10,2013-02-24 03:02:00,
2013-02-23 22:17:00,41.7,42.0,29.77,NNW,343,0.0,2.0,99,0.00,,,0.30,weatherlink.com 1.10,2013-02-24 03:17:00,
2013-02-23 22:32:00,41.5,41.0,29.76,NNE,32,1.0,6.0,99,0.00,,,0.30,weatherlink.com 1.10,2013-02-24 03:32:00,
2013-02-23 22:47:00,41.3,41.0,29.76,NE,39,0.0,4.0,99,0.00,,,0.30,weatherlink.com 1.10,2013-02-24 03:47:00,
2013-02-23 23:02:00,41.3,41.0,29.75,NNE,22,0.0,4.0,99,0.00,,,0.30,weatherlink.com 1.10,2013-02-24 04:02:00,
2013-02-23 23:17:00,41.2,41.0,29.75,NNE,29,1.0,4.0,99,0.00,,,0.30,weatherlink.com 1.10,2013-02-24 04:17:00,
2013-02-23 23:32:00,41.1,41.0,29.76,NNW,332,1.0,2.0,99,0.00,,,0.30,weatherlink.com 1.10,2013-02-24 04:32:00,
2013-02-23 23:47:00,41.0,41.0,29.76,NE,44,0.0,4.0,99,0.00,,,0.30,weatherlink.com 1.10,2013-02-24 04:47:00,